トータス彗星

C/2017 M5 ( TOTAS )

English version
Home page
Updated on May 21, 2018

---------------------------------------------------------------------

・ プロフィール

発見日 2017年6月23日
発見光度 18.6等
発見者 Teide Observatory Tenerife Asteroid Survey (TOTAS)

・ 写真集

・ 軌道要素

Epoch 2018 June 11.0 TT = JDT 2458280.5
T 2018 June 2.98525 TT                                  MPCW
q   5.9894754            (2000.0)            P               Q
z  -0.0006367      Peri.   92.66215     +0.60573960     +0.77901854
 +/-0.0000023      Node   216.26281     -0.79431030     +0.58020062
e   1.0038137      Incl.   15.88487     -0.04637540     +0.23769170
From 135 observations 2016 May 30-2018 Mar. 17, mean residual 0".5.

・ 光度変化

        m1 = -6.0 + 5 logΔ + 25 log r

---------------------------------------------------------------------

軌道要素はM.P.E.C. 2018-F152に掲載されたものです。
光度グラフはComet for Windowsで作成したものです。

---------------------------------------------------------------------

Copyright(C) Seiichi Yoshida (comet@aerith.net). All rights reserved.